User: anonymous   Login
Location: Unspecified
(0.0000°N, 0.0000°E)
Time: 11:53:11
(UTC+00:00)
Language:

Geosat FO - Orbit

View from above orbital plane
View from above orbital plane
View from above satellite
View from above satellite

Ground track
Ground track

The orbit data is extracted from the following two-line orbital elements,

1 25157U 98007A   18014.70225887 0.00001000  00000-0  61271-4 0    02
2 25157 107.8611 171.1569 0068514 216.5015 143.4985 15.08095802    02
Epoch (UTC): 14 January 2018 16:51:15
Eccentricity: 0.0068514
inclination: 107.8611°
perigee height: 494 km
apogee height: 589 km
right ascension of ascending node: 171.1569°
argument of perigee: 216.5015°
revolutions per day: 15.08095802
mean anomaly at epoch: 143.4985°
orbit number at epoch: 0

The dashed part of the orbit path shows where the satellite is in the earth's shadow,  

DLR